Regional Weather Roundup
Issued by NWS

Home | Current Version | Previous Version | Text Only | Print | Product List | Glossary Off
Versions: 1 2 3 4 5 6 7 8 9 10 11 12 13 14 15 16 17 18 19 20 21 22 23 24 25 26 27 28 29 30 31 32 33 34 35 36 37 38 39 40 41 42 43 44 45 46 47 48 49 50

000
ASUS43 KOAX 220010
RWRNE

WEATHER ROUNDUP FOR NEBRASKA
NATIONAL WEATHER SERVICE OMAHA NE
700 PM CDT SAT OCT 21 2017

NOTES: SATELLITE DATA IS BEING USED TO AUGMENT CLOUD COVER ABOVE
       12000 FEET.
       "FAIR" INDICATES FEW OR NO CLOUDS BELOW 12,000 FEET WITH NO
       SIGNIFICANT WEATHER AND/OR OBSTRUCTIONS TO VISIBILITY.


NEZ001>004-019>022-054>056-220100-
NEBRASKA PANHANDLE

CITY           SKY/WX    TMP DP  RH WIND       PRES   REMARKS
SCOTTSBLUFF    CLEAR     52  18  26 W18G26    30.02R
6HR MIN TEMP:  52; 6HR MAX TEMP:  59;

ALLIANCE       CLEAR     47  11  23 W9        29.98R HAZE
6HR MIN TEMP:  47; 6HR MAX TEMP:  57;

CHADRON        CLEAR     50  12  21 NW7       29.96R
6HR MIN TEMP:  50; 6HR MAX TEMP:  60;

GORDON         FAIR      52  15  22 NW9       29.95R
6HR MIN TEMP:  52; 6HR MAX TEMP:  57;

KIMBALL        CLEAR     48  13  24 W21       30.06R
SIDNEY         CLEAR     50  12  21 W16       30.04R
6HR MIN TEMP:  50; 6HR MAX TEMP:  58;

$$

NEZ057>060-069>072-079>082-220100-
SOUTHWEST NEBRASKA

CITY           SKY/WX    TMP DP  RH WIND       PRES   REMARKS
NORTH PLATTE   CLEAR     48  30  49 NW8       29.98R
6HR MIN TEMP:  48; 6HR MAX TEMP:  62;

IMPERIAL       CLEAR     54  18  24 NW7       30.01R
6HR MIN TEMP:  54; 6HR MAX TEMP:  62;

LEXINGTON      CLEAR     53  36  51 W3        29.97R
MCCOOK         CLEAR     55  23  28 NW12      29.98R
6HR MIN TEMP:  55; 6HR MAX TEMP:  64;

OGALLALA       CLEAR     52  22  30 NW6       30.00R
$$

NEZ005>010-023>029-035>040-094-220100-
NORTH CENTRAL NEBRASKA

CITY           SKY/WX    TMP DP  RH WIND       PRES   REMARKS
VALENTINE      CLEAR     53  27  36 NW6       29.93R
6HR MIN TEMP:  48; 6HR MAX TEMP:  60;

AINSWORTH      CLEAR     50  32  49 W3        29.94R
BROKEN BOW     CLEAR     47  36  65 NW6       29.94R
6HR MIN TEMP:  47; 6HR MAX TEMP:  58; 6HR PCP: TRACE;

O`NEILL        CLEAR     50  32  49 W6        29.92R
ORD            CLEAR     50  35  56 NW6       29.93R
6HR MIN TEMP:  50; 6HR MAX TEMP:  58;

THEDFORD       CLEAR     53  24  32 W10G16    29.96R
$$

NEZ041-046>049-061>064-073>077-083>087-220100-
SOUTH CENTRAL NEBRASKA

CITY           SKY/WX    TMP DP  RH WIND       PRES   REMARKS
GRAND ISLAND   CLEAR     50  40  68 NW6       29.95R
6HR MIN TEMP:  50; 6HR MAX TEMP:  59;

AURORA         CLEAR     51  37  60 CALM      29.96R
HASTINGS       CLEAR     51  37  58 NW6       29.97R
6HR MIN TEMP:  51; 6HR MAX TEMP:  61;

HEBRON         CLOUDY    56  40  53 NW8       29.93R
HOLDREGE       CLEAR     52  37  56 N5        29.96R
KEARNEY        PTCLDY    53  35  50 NW6       29.96R
YORK           PTCLDY    52  39  62 NW9       29.96R
$$

NEZ011>018-030>034-042>045-220100-
NORTHEAST NEBRASKA

CITY           SKY/WX    TMP DP  RH WIND       PRES   REMARKS
NORFOLK        CLEAR     50  36  58 CALM      29.92R
6HR MIN TEMP:  50; 6HR MAX TEMP:  57;

ALBION         CLEAR     50  39  64 CALM      29.94R
BLAIR          CLOUDY    56  42  59 NW10      29.88R
COLUMBUS       CLEAR     51  38  60 NW9       29.95
FREMONT        CLOUDY    55  40  56 NW9G17    29.89S
TEKAMAH        CLOUDY    56  40  55 NW8       29.88R
6HR MIN TEMP:  56; 6HR MAX TEMP:  75;

WAYNE          PTCLDY    50  36  59 NW8       29.92R
$$

NEZ050>053-065>068-078-088>093-220100-
SOUTHEAST NEBRASKA

CITY           SKY/WX    TMP DP  RH WIND       PRES   REMARKS
LINCOLN        CLOUDY    57  40  52 NW10      29.91R
6HR MIN TEMP:  57; 6HR MAX TEMP:  76;

OMAHA EPPLEY   CLOUDY    58  41  53 NW16G22   29.87R
6HR MIN TEMP:  58; 6HR MAX TEMP:  76;

BEATRICE       CLOUDY    57  42  55 N16G22    29.89S
FALLS CITY     LGT RAIN  60  50  69 NW12G18   29.83R
6HR MIN TEMP:  59; 6HR MAX TEMP:  75; 6HR PCP:  0.37;

NEBRASKA CITY  CLOUDY    59  43  55 N17       29.87R
PLATTSMOUTH    CLOUDY    58  43  58 NW14G20   29.86S
$$

NEZ044-045-051>053-067-220100-
OMAHA AREA

CITY           SKY/WX    TMP DP  RH WIND       PRES   REMARKS
OMAHA EPPLEY   CLOUDY    58  41  53 NW16G22   29.87R
6HR MIN TEMP:  58; 6HR MAX TEMP:  76;

BLAIR          CLOUDY    56  42  59 NW10      29.88R
FREMONT        CLOUDY    55  40  56 NW9G17    29.89S
MILLARD        CLOUDY    59  44  56 NW10G16   29.88R
OFFUTT AFB     CLOUDY    58  42  55 NW10      29.86R
PLATTSMOUTH    CLOUDY    58  43  58 NW14G20   29.86S
WAHOO          FAIR      56  39  52 NW10G16   29.89S
$$




USA.gov is the U.S. government's official web portal to all federal, state and local government web resources and services.